Estación de Coihueco
Ultimos registro cada 15 minutos 54
| N° | Estación | Fecha / Hora | Temperatura | Humedad | Lluvia | Velocidad | Dirección | Radiación | Presion |
| 54 | Coihueco | 07-05-2026 13:15 | 12,6 | 66,6 | 0 | 3 | 213 | 361,9 | 1000,7 |
| 53 | Coihueco | 07-05-2026 13:00 | 12,5 | 66,9 | 0 | 3 | 223 | 426,9 | 1000,9 |
| 52 | Coihueco | 07-05-2026 12:45 | 12,5 | 67,6 | 0 | 3 | 202 | 365,6 | 1000,9 |
| 51 | Coihueco | 07-05-2026 12:30 | 12,7 | 67,7 | 0 | 3,5 | 215 | 535,6 | 1001,1 |
| 50 | Coihueco | 07-05-2026 12:15 | 12,4 | 69,1 | 0 | 3,5 | 219 | 511,9 | 1001 |
| 49 | Coihueco | 07-05-2026 12:00 | 12,6 | 72,1 | 0 | 3 | 216 | 479,4 | 1001,4 |
| 48 | Coihueco | 07-05-2026 11:45 | 12,3 | 70,1 | 0 | 3 | 215 | 573,1 | 1001,8 |
| 47 | Coihueco | 07-05-2026 11:30 | 11,8 | 71,4 | 0 | 3 | 205 | 530,6 | 1001,5 |
| 46 | Coihueco | 07-05-2026 11:15 | 11,6 | 75,6 | 0 | 2,5 | 212 | 498,1 | 1002 |
| 45 | Coihueco | 07-05-2026 11:00 | 11,5 | 81 | 0 | 2,5 | 201 | 474,4 | 1002 |
| 44 | Coihueco | 07-05-2026 10:45 | 10,8 | 79,8 | 0 | 3,5 | 208 | 450,6 | 1002,1 |
| 43 | Coihueco | 07-05-2026 10:30 | 10,7 | 80,8 | 0 | 3 | 202 | 419,4 | 1002,2 |
| 42 | Coihueco | 07-05-2026 10:15 | 10,4 | 81,2 | 0 | 1,5 | 199 | 371,9 | 1002 |
| 41 | Coihueco | 07-05-2026 10:00 | 9,4 | 86,2 | 0 | 1 | 199 | 336,9 | 1002,3 |
| 40 | Coihueco | 07-05-2026 09:45 | 8 | 89,7 | 0 | 1 | 178 | 308,1 | 1001,9 |
| 39 | Coihueco | 07-05-2026 09:30 | 7,8 | 91,5 | 0 | 0 | 161 | 284,4 | 1001,8 |
| 38 | Coihueco | 07-05-2026 09:15 | 6,4 | 96,2 | 0 | 0,5 | 167 | 239,4 | 1001,6 |
| 37 | Coihueco | 07-05-2026 09:00 | 5,4 | 97,9 | 0 | 0,5 | 178 | 100,6 | 1001,6 |
| 36 | Coihueco | 07-05-2026 08:45 | 4,7 | 99,1 | 0 | 0 | 187 | 79,4 | 1001,7 |
| 35 | Coihueco | 07-05-2026 08:30 | 3,8 | 100 | 0 | 0 | 268 | 63,1 | 1001,7 |
| 34 | Coihueco | 07-05-2026 08:15 | 3,9 | 100 | 0,2 | 0 | 268 | 133,1 | 1001,6 |
| 33 | Coihueco | 07-05-2026 08:00 | 1,3 | 100 | 0 | 0 | 268 | 55,6 | 1001,3 |
| 32 | Coihueco | 07-05-2026 07:45 | 0,4 | 100 | 0 | 0 | 268 | 8,1 | 1001,2 |
| 31 | Coihueco | 07-05-2026 07:30 | 0,2 | 100 | 0 | 0 | 268 | 1,9 | 1001,2 |
| 30 | Coihueco | 07-05-2026 07:15 | 0,3 | 100 | 0 | 0 | 268 | 0,6 | 1000,7 |
| 29 | Coihueco | 07-05-2026 07:00 | -0,1 | 100 | 0 | 0 | 268 | 0,6 | 1000,8 |
| 28 | Coihueco | 07-05-2026 06:45 | 0,1 | 100 | 0 | 0 | 268 | 0,6 | 1000,6 |
| 27 | Coihueco | 07-05-2026 06:30 | -0,3 | 100 | 0 | 0 | 268 | 0,6 | 1000,6 |
| 26 | Coihueco | 07-05-2026 06:15 | 0,7 | 100 | 0 | 0 | 268 | 0,6 | 1000,4 |
| 25 | Coihueco | 07-05-2026 06:00 | 1,5 | 100 | 0 | 0 | 268 | 0,6 | 1000,3 |
| 24 | Coihueco | 07-05-2026 05:45 | 1,4 | 100 | 0 | 0 | 268 | 0,6 | 1000,3 |
| 23 | Coihueco | 07-05-2026 05:30 | 1,7 | 100 | 0 | 0 | 268 | 0,6 | 1000 |
| 22 | Coihueco | 07-05-2026 05:15 | 1 | 100 | 0 | 0 | 268 | 0,6 | 999,7 |
| 21 | Coihueco | 07-05-2026 05:00 | 2,7 | 99,8 | 0 | 0 | 268 | 0,6 | 999,6 |
| 20 | Coihueco | 07-05-2026 04:45 | 3,2 | 100 | 0 | 0,5 | 270 | 0,6 | 999,6 |
| 19 | Coihueco | 07-05-2026 04:30 | 2,5 | 100 | 0 | 0 | 275 | 0,6 | 999,3 |
| 18 | Coihueco | 07-05-2026 04:15 | 2 | 98,9 | 0 | 0 | 275 | 0,6 | 999,1 |
| 17 | Coihueco | 07-05-2026 04:00 | 2,5 | 100 | 0 | 0 | 275 | 0,6 | 999,1 |
| 16 | Coihueco | 07-05-2026 03:45 | 2,7 | 100 | 0 | 0 | 275 | 0,6 | 999,1 |
| 15 | Coihueco | 07-05-2026 03:30 | 2,7 | 99,1 | 0 | 0 | 275 | 0,6 | 999,1 |
| 14 | Coihueco | 07-05-2026 03:15 | 3,4 | 97,8 | 0 | 0 | 275 | 0,6 | 998,9 |
| 13 | Coihueco | 07-05-2026 03:00 | 4,4 | 98,3 | 0 | 0 | 212 | 0,6 | 999 |
| 12 | Coihueco | 07-05-2026 02:45 | 4,7 | 97,3 | 0 | 0 | 199 | 0,6 | 999,1 |
| 11 | Coihueco | 07-05-2026 02:30 | 5,2 | 96,3 | 0 | 0 | 199 | 0,6 | 999 |
| 10 | Coihueco | 07-05-2026 02:15 | 5,6 | 93,3 | 0 | 0 | 199 | 0,6 | 998,7 |
| 9 | Coihueco | 07-05-2026 02:00 | 6,5 | 92,5 | 0 | 1 | 202 | 0,6 | 998,9 |
| 8 | Coihueco | 07-05-2026 01:45 | 6,1 | 94,7 | 0 | 1 | 215 | 0,6 | 998,7 |
| 7 | Coihueco | 07-05-2026 01:30 | 5,8 | 95,3 | 0 | 1 | 211 | 0,6 | 998,3 |
| 6 | Coihueco | 07-05-2026 01:15 | 5,8 | 97,3 | 0 | 1 | 222 | 0,6 | 998,3 |
| 5 | Coihueco | 07-05-2026 01:00 | 6,1 | 97,6 | 0 | 1 | 234 | 0,6 | 998,4 |
| 4 | Coihueco | 07-05-2026 00:45 | 6,4 | 97,1 | 0 | 0,5 | 225 | 0,6 | 998,2 |
| 3 | Coihueco | 07-05-2026 00:30 | 7,1 | 96,3 | 0 | 1 | 202 | 0,6 | 998,3 |
| 2 | Coihueco | 07-05-2026 00:15 | 7,6 | 96,5 | 0 | 1 | 212 | 0,6 | 998 |
| 1 | Coihueco | 07-05-2026 00:00 | 7,5 | 96,9 | 0 | 1 | 254 | 0,6 | 997,9 |